Flag for Cote d'Ivoire (Ivory Coast) Weather past 2 weeks in Abidjan, Cote d'Ivoire (Ivory Coast)

Now
77 °F

Broken clouds.


Feels Like: 78 °F
Forecast: N/A
Wind: 7 mph from Southwest

Location: Abidjan Airport

Current Time: Aug 30, 2014 at 7:16:20 PM

Latest Report: Aug 30, 2014 at 6:00 PM


Visibility: N/A

Pressure: 29.86 "Hg

Humidity: 94%

Dew point: 75 °F

Location of AbidjanLocation

Historic Weather in Abidjan — Graph

°F

Abidjan temperature yesterday

Maximum temperature yesterday: 82 °F (at 12:00 PM)
Minimum temperature yesterday: 75 °F (at 12:00 AM)
Average temperature yesterday: 77 °F

Past Weeks' High & Low Weather Summary

 TemperatureHumidityPressure
High82 °F (Aug 22, 12:00 PM)100% (Aug 16, 1:30 AM)30.01 "Hg (Aug 16, 1:30 AM)
Low72 °F (Aug 19, 5:30 AM)70% (Aug 22, 12:30 PM)29.83 "Hg (Aug 26, 4:30 PM)
Average76 °F91%29.91 "Hg
* Reported Aug 15 5:00 PM — Aug 30 5:30 PM, Abidjan, Weather by CustomWeather, © 2014

Note: Actual official high and low records may vary slightly from our data, if they occured in-between our weather recording intervals... More about our weather records

Advertising

Abidjan weather history for previous 24 hours

 ConditionsComfort  
Time TempWeatherWind HumidityBarometerVisibility
5:30 PM
Aug 30
79 °FScattered clouds.10 mph89%29.86 "HgN/A
5:00 PM81 °FScattered clouds.12 mph84%29.86 "HgN/A
4:30 PM81 °FScattered clouds.10 mph84%29.86 "HgN/A
4:00 PM79 °FScattered clouds.12 mph89%29.86 "HgN/A
3:30 PM79 °FBroken clouds.14 mph89%29.86 "HgN/A
3:00 PM81 °FBroken clouds.12 mph79%29.86 "HgN/A
2:30 PM81 °FBroken clouds.13 mph79%29.89 "HgN/A
2:00 PM81 °FBroken clouds.15 mph79%29.89 "HgN/A
1:30 PM82 °FPartly sunny.16 mph74%29.89 "HgN/A
1:00 PM81 °FPartly sunny.15 mph84%29.89 "HgN/A
12:30 PM82 °FPartly sunny.14 mph74%29.92 "HgN/A
12:00 PM82 °FPartly sunny.13 mph74%29.92 "HgN/A
11:30 AM82 °FPartly sunny.15 mph74%29.95 "Hg6 mi
11:00 AM82 °FPartly sunny.13 mph74%29.95 "HgN/A
10:30 AM81 °FPartly sunny.13 mph84%29.95 "HgN/A
10:00 AM79 °FPartly sunny.9 mph89%29.95 "HgN/A
9:30 AM79 °FPartly sunny.10 mph89%29.95 "Hg6 mi
9:00 AM79 °FPartly sunny.10 mph89%29.95 "Hg5 mi
8:30 AM77 °FPartly sunny.10 mph94%29.95 "Hg5 mi
8:00 AM77 °FBroken clouds.8 mph94%29.92 "Hg4 mi
7:30 AM75 °FScattered clouds.7 mph100%29.89 "Hg4 mi
7:00 AM75 °FBroken clouds.8 mph100%29.89 "Hg4 mi
6:30 AM75 °FBroken clouds.6 mph100%29.89 "Hg5 mi
6:00 AM75 °FPartly cloudy.6 mph94%29.89 "Hg5 mi
5:30 AM75 °FPartly cloudy.8 mph100%29.89 "Hg5 mi
5:00 AM75 °FPartly cloudy.7 mph100%29.89 "Hg5 mi
4:30 AM75 °FPartly cloudy.7 mph94%29.89 "Hg5 mi
4:00 AM75 °FPartly cloudy.7 mph94%29.89 "Hg5 mi
3:30 AM75 °FPartly cloudy.3 mph100%29.89 "Hg5 mi
3:00 AM75 °FPartly cloudy.2 mph100%29.89 "Hg5 mi
2:30 AM75 °FPartly cloudy.6 mph100%29.89 "Hg5 mi
2:00 AM75 °FPartly cloudy.5 mph100%29.89 "Hg5 mi
1:30 AM75 °FPartly cloudy.5 mph100%29.92 "HgN/A
1:00 AM75 °FPassing clouds.5 mph100%29.92 "HgN/A
12:30 AM75 °FPassing clouds.6 mph100%29.92 "HgN/A
12:00 AM75 °FPassing clouds.5 mph100%29.92 "HgN/A
11:30 PM
Aug 29
75 °FPassing clouds.6 mph94%29.92 "HgN/A
11:00 PM75 °FPassing clouds.7 mph94%29.92 "HgN/A
10:30 PM75 °FPassing clouds.7 mph94%29.92 "HgN/A
10:00 PM75 °FPartly cloudy.3 mph100%29.92 "HgN/A
9:30 PM75 °FPartly cloudy.5 mph94%29.92 "HgN/A
9:00 PM75 °FPassing clouds.7 mph100%29.89 "HgN/A
7:00 PM77 °FPartly cloudy.6 mph94%29.86 "Hg5 mi
Weather by CustomWeather, © 2014

See weather overviewHow to use our weather pages